Helicity
30 22 30 24 14 15 24 28 16 15 20 36 48 48 54 68 73 68 73 84 84 76 90 92 99 108 81 96 73 118 152 120 67 62 79 54 57 44 31 24 30 41 24 -12 -28 -30 -50
43 35 27 23 26 16 11 25 36 26 20 24 35 38 50 59 67 76 83 85 81 84 90 105 109 94 83 73 93 104 95 73 87 70 78 66 38 29 45 34 40 16 -21 -30 -22 -20 39
40 54 47 34 25 28 15 8 20 33 34 26 21 24 35 45 51 62 76 71 70 67 73 86 93 84 95 42 70 79 62 50 59 55 44 51 40 34 32 44 18 -2 -1 -5 22 29 27
12 35 51 51 38 27 27 19 13 19 36 48 40 32 29 27 33 45 62 68 68 65 71 74 69 46 52 66 62 50 47 24 37 32 35 31 38 43 35 -3 18 15 20 42 29 22 2
32 35 46 54 47 37 26 36 41 38 31 29 32 36 36 34 37 44 51 59 58 69 76 77 51 38 51 70 47 54 27 29 25 31 32 29 32 31 31 12 25 41 19 20 15 7 8
26 43 52 56 58 53 39 29 30 37 35 30 24 23 24 29 36 40 52 63 88 56 52 51 32 36 35 35 34 49 20 19 20 22 38 33 42 32 26 22 1 6 10 15 10 13 24
-2 25 40 56 60 58 55 40 34 32 32 31 33 29 19 5 20 37 24 38 38 76 71 33 32 21 23 39 22 37 26 7 9 33 47 35 41 19 -10 -15 2 13 19 18 12 10 19
12 19 36 47 50 54 59 60 39 33 48 41 31 35 23 15 18 5 8 20 35 28 12 38 15 4 -0 2 22 35 -0 4 16 31 16 34 16 -22 -4 17 3 8 28 14 9 21 35
25 16 16 29 44 48 55 60 53 40 42 45 45 32 25 18 -1 18 12 4 39 20 13 21 -1 -4 1 11 1 39 24 5 9 4 3 -10 -22 2 20 12 15 24 15 26 31 32 38
32 36 26 14 17 30 47 57 70 53 25 44 46 41 40 24 -15 1 -14 19 27 7 25 67 38 4 -2 4 19 -6 -19 -24 -3 -27 -30 10 7 5 4 15 27 56 33 63 62 63 66
48 44 43 31 20 14 22 35 52 69 40 8 5 13 -6 21 33 -4 -7 8 18 24 31 2 -2 -18 -23 -10 -5 -3 -22 -13 -12 -5 11 23 23 31 44 52 45 29 48 56 74 90 112
57 59 52 56 49 36 31 26 31 48 48 -6 -13 -26 26 -25 -41 -38 -25 -10 -1 37 25 23 1 15 1 5 -2 -14 -9 -0 -9 18 30 21 14 39 40 42 21 34 72 112 118 109 126
79 80 76 70 67 65 57 52 56 51 52 9 -51 -40 -35 -58 -12 -33 -8 5 33 47 9 19 14 12 -7 8 10 23 14 20 28 50 74 39 52 54 66 48 41 82 80 61 95 123 104
99 103 102 94 87 79 70 82 75 79 91 36 -33 -7 -18 -14 -17 12 15 41 61 23 16 24 22 12 37 39 27 33 27 39 61 61 52 70 73 80 57 54 69 79 57 69 90 119 162
98 105 112 112 110 117 103 90 101 101 114 39 20 13 9 -0 -2 19 45 79 23 9 27 40 29 56 55 41 36 53 40 24 45 53 59 62 38 87 95 84 90 75 85 101 147 155 190
85 87 97 103 106 116 135 140 127 133 106 26 22 35 19 6 17 31 78 58 59 37 40 38 42 60 47 34 51 55 28 46 52 68 75 55 69 92 100 105 141 133 130 150 172 143 121
69 73 79 87 93 97 108 124 147 155 172 13 37 52 20 31 28 75 91 71 81 80 62 64 68 77 73 66 71 62 71 73 89 96 96 94 122 84 105 93 114 169 172 201 195 229 225
72 80 84 78 85 89 91 102 115 148 179 46 40 57 34 41 83 91 104 91 99 93 87 88 91 90 95 102 83 87 92 87 93 116 106 119 137 97 67 161 164 168 169 208 253 223 330
72 80 84 88 91 103 97 101 105 111 104 50 44 53 54 71 90 98 95 106 102 105 94 106 107 92 111 108 99 100 108 126 145 141 121 112 144 111 109 163 148 159 178 219 260 335 382
75 86 86 93 91 107 114 118 124 126 121 32 54 95 110 100 113 123 115 106 122 94 97 111 116 132 131 109 112 111 112 142 136 137 154 181 220 219 203 158 175 237 258 254 281 370 307
67 75 98 100 98 113 117 120 125 158 116 48 85 85 96 125 138 125 116 120 123 117 130 116 124 115 127 113 114 135 156 190 173 157 187 219 249 224 222 198 193 195 222 199 224 247 368
70 86 87 105 101 88 101 134 153 164 75 93 126 110 107 116 140 141 134 104 103 119 135 111 130 148 136 158 152 168 188 171 166 210 212 305 275 284 242 177 178 195 207 205 209 166 210
71 75 92 103 130 100 99 127 150 162 110 82 93 104 121 124 132 145 128 145 136 145 144 162 141 175 139 107 133 137 168 193 210 258 249 318 289 260 225 259 236 244 160 102 230 223 228
72 78 76 89 114 117 98 105 131 137 116 101 104 106 144 117 119 99 121 142 137 164 174 179 158 146 129 116 100 138 167 177 201 204 259 367 371 312 295 261 289 168 181 184 179 208 220
79 79 80 76 90 99 85 96 110 128 125 100 92 129 133 127 112 107 118 128 153 159 168 161 154 156 139 163 189 212 221 224 192 203 195 145 281 290 388 320 276 223 193 200 163 218 206
125 113 92 90 88 82 72 90 120 131 137 109 135 122 155 155 110 158 150 151 156 163 177 160 174 161 180 207 214 230 186 202 213 241 270 218 152 284 390 364 364 275 260 177 189 293 330
152 147 129 121 112 100 78 77 94 123 140 97 118 134 153 146 131 142 132 138 156 171 176 169 181 192 179 237 251 252 241 265 270 258 206 248 234 209 198 277 350 310 211 211 305 303 271
314 257 171 136 132 160 123 88 89 107 119 81 81 119 129 131 119 131 154 169 192 199 195 165 164 181 223 231 227 217 250 230 269 236 216 193 206 220 248 340 394 284 267 278 273 170 151
177 232 88 121 153 160 170 146 110 107 99 79 96 103 113 127 127 117 117 121 144 144 192 178 174 183 189 207 222 192 271 296 257 268 248 264 225 281 322 396 270 108 125 48 -51 -18 -70
Wind_Speed
64 59 55 51 46 45 39 38 40 44 46 43 41 43 42 38 36 33 32 31 31 29 26 24 24 27 27 24 26 31 33 33 31 28 27 29 30 30 29 27 30 29 36 44 48 49 42
63 58 51 46 41 37 36 30 30 35 36 39 38 38 36 34 33 32 32 32 31 29 27 24 22 25 24 24 29 32 33 30 29 27 28 28 26 26 27 28 31 40 47 50 47 48 17
65 59 52 48 41 35 31 30 26 24 28 29 31 32 33 33 33 34 35 33 31 29 26 24 20 17 9 20 28 30 30 28 30 28 26 27 27 28 30 32 40 45 49 49 41 48 38
71 59 51 45 42 40 33 29 26 25 21 24 27 29 31 31 30 31 32 32 31 29 27 23 24 24 19 27 28 28 30 30 30 29 27 29 31 30 34 40 41 45 44 45 40 46 37
49 55 51 43 35 33 37 30 29 28 26 24 23 27 29 30 28 31 32 32 30 28 27 25 24 21 21 28 25 29 29 30 30 29 31 32 33 34 38 42 44 43 47 50 53 43 48
15 19 28 34 35 31 24 27 27 25 26 24 25 26 27 27 27 30 32 30 25 25 22 23 20 21 24 26 29 31 32 31 31 33 33 36 36 37 40 42 46 49 51 52 58 50 55
27 21 18 17 21 22 26 18 16 19 13 14 19 25 28 28 28 27 31 28 31 23 11 14 18 20 26 30 29 33 34 31 33 33 34 37 37 39 41 41 41 44 46 57 53 47 65
25 20 21 21 19 18 16 16 12 9 11 10 9 16 24 27 29 32 31 28 31 29 21 17 20 24 26 30 31 37 36 32 33 33 36 37 37 37 41 42 46 46 53 56 47 49 67
42 38 28 26 26 28 27 25 21 11 3 4 6 13 22 27 34 28 25 27 29 27 21 23 26 28 30 29 29 33 34 33 33 36 38 36 36 39 43 45 48 48 49 54 59 68 52
48 49 49 42 35 31 28 33 33 31 21 7 2 9 16 32 36 38 38 39 30 29 24 29 30 32 33 31 33 36 37 35 37 39 36 37 39 43 44 44 48 54 46 54 67 70 65
53 55 57 59 56 49 41 37 34 38 34 28 23 22 24 29 41 38 34 23 28 29 29 36 34 36 35 33 37 38 38 38 39 40 40 42 43 48 43 45 47 49 57 60 57 56 59
55 56 58 59 58 55 54 53 50 46 40 35 30 35 39 43 38 35 32 29 31 31 32 36 37 39 36 37 37 40 39 38 37 38 39 41 40 39 41 45 48 56 56 56 51 52 58
56 57 58 59 60 59 59 59 58 55 51 43 36 37 36 33 36 32 32 31 35 34 36 39 40 42 38 41 40 43 43 45 45 48 51 51 44 42 42 53 49 59 62 70 65 65 63
56 56 57 59 60 60 61 61 60 60 56 49 39 38 42 39 34 31 34 35 41 37 38 40 43 44 42 46 45 50 48 51 46 44 51 55 56 46 48 54 55 57 57 62 78 76 76
55 55 56 58 61 60 60 61 61 62 61 53 34 35 40 43 36 33 34 42 40 38 39 46 44 45 46 46 51 53 51 50 44 47 54 57 54 49 52 47 48 56 58 48 59 58 65
54 54 55 58 60 61 61 62 62 63 62 52 35 34 41 43 36 35 38 38 36 33 38 43 50 46 52 54 56 55 53 45 46 44 43 48 65 50 48 44 46 46 40 56 53 63 66
51 52 54 56 59 61 62 63 63 64 64 50 38 37 40 43 36 39 37 34 34 35 40 44 46 50 49 54 51 54 51 47 42 41 42 45 50 53 51 49 50 50 50 47 49 50 65
49 52 54 56 58 60 61 63 64 65 67 48 39 39 44 42 41 39 38 34 32 35 39 39 40 44 48 48 53 50 50 45 33 36 50 46 52 64 57 48 46 46 49 42 58 65 58
47 51 54 56 59 60 61 62 63 63 62 50 43 42 42 43 41 41 36 38 35 34 34 38 42 39 41 46 53 46 49 42 33 39 45 41 55 74 68 56 47 51 49 47 52 59 67
47 48 51 55 59 59 61 62 62 63 59 43 48 46 45 43 40 38 42 43 40 34 36 34 37 38 44 48 43 52 50 46 38 41 43 40 54 60 77 75 67 70 59 53 57 76 86
45 47 48 52 58 60 61 62 63 63 56 42 47 47 44 44 45 45 45 44 45 46 38 34 42 39 41 53 54 54 50 52 48 49 50 52 72 66 68 72 75 78 74 67 71 74 86
45 45 49 48 53 59 60 60 63 64 49 44 48 49 46 45 45 44 44 45 44 46 42 45 44 44 43 54 53 65 58 60 62 56 55 55 79 76 92 81 79 90 80 78 74 75 80
43 46 46 48 47 55 59 60 60 62 49 45 43 41 46 49 47 48 49 47 47 46 47 46 46 51 57 59 56 57 55 56 58 60 60 60 69 82 99 80 90 104 81 67 68 62 62
45 42 44 45 47 50 55 59 58 57 47 42 42 45 47 54 50 52 52 51 52 51 54 51 52 57 54 55 61 62 63 66 65 62 56 68 68 70 95 95 110 81 62 61 73 72 60
46 44 43 43 45 47 51 53 56 55 49 41 40 41 49 56 54 59 57 57 58 56 59 60 56 53 56 58 69 79 76 75 63 55 54 46 57 74 84 88 98 96 74 69 66 70 56
47 47 45 45 46 45 47 49 49 52 50 42 42 41 44 57 61 50 56 57 64 64 65 58 50 51 51 59 64 79 86 81 75 70 57 51 43 60 70 89 105 74 59 59 58 88 60
43 42 42 43 45 46 46 48 47 49 48 41 44 42 44 58 53 49 58 60 49 58 64 63 61 59 51 62 72 78 83 67 82 78 75 67 64 73 80 89 84 65 67 66 91 85 72
35 36 40 43 43 45 46 46 46 44 44 41 43 45 45 55 59 52 51 53 54 54 62 58 65 57 57 63 68 70 74 67 75 69 72 78 79 79 73 86 100 63 66 75 73 83 89
36 40 39 39 40 43 44 43 40 42 45 42 46 44 45 52 56 48 46 46 49 47 50 51 55 51 52 59 58 62 71 70 73 95 63 84 66 81 72 84 73 77 77 79 83 95 93
Wind_Direction
72 75 78 81 85 88 94 100 104 105 109 116 123 126 132 143 151 160 169 178 184 192 205 217 235 246 237 237 247 267 282 289 295 309 311 306 304 307 315 338 344 348 313 282 263 257 245
74 75 77 80 84 91 96 105 112 114 117 119 125 129 139 146 155 164 170 177 184 193 202 219 244 240 242 237 259 278 286 298 311 318 312 314 329 343 337 343 339 295 272 263 274 282 8
73 75 76 78 82 88 96 105 117 129 130 131 135 138 143 150 155 161 166 172 179 188 201 216 234 236 295 262 260 281 293 299 306 320 324 339 339 335 335 332 287 288 280 282 307 319 355
66 73 74 76 79 84 91 101 113 126 144 147 146 147 150 153 159 165 168 172 180 188 198 214 220 226 253 235 247 286 290 305 314 321 323 315 314 326 311 287 292 293 299 310 326 337 358
76 72 73 73 73 78 87 95 105 114 126 142 157 157 157 160 165 167 169 174 180 194 200 212 224 252 262 244 292 287 309 314 303 305 307 313 306 301 292 293 294 299 306 305 309 348 350
43 57 69 71 71 71 74 88 98 111 118 131 144 157 168 176 178 175 174 179 193 203 216 217 253 280 287 286 294 293 298 298 302 300 312 297 295 292 293 298 300 299 303 313 314 340 341
347 356 12 32 56 58 70 67 81 101 122 141 151 154 158 166 180 193 187 191 183 198 291 304 283 310 289 272 283 302 301 303 313 309 314 293 295 294 294 305 313 317 326 318 332 345 336
335 341 346 352 358 4 21 35 48 72 99 126 176 187 169 171 181 180 186 203 197 201 4 268 290 306 293 295 303 308 313 301 298 312 295 293 297 302 308 314 313 322 322 324 338 342 335
336 334 330 333 337 339 341 343 346 348 53 102 163 172 179 175 170 199 213 208 206 231 295 298 297 310 300 306 296 294 308 302 309 301 300 302 308 315 313 316 320 326 329 331 330 332 342
336 337 338 332 328 329 330 333 333 331 318 296 193 178 175 146 129 138 135 167 206 230 300 289 287 302 306 303 298 316 320 316 313 306 313 314 322 318 321 325 328 324 337 335 329 329 330
341 343 344 350 346 337 329 327 325 327 321 310 310 311 332 122 92 98 96 357 327 321 301 283 297 329 319 313 306 320 336 333 320 319 316 314 320 321 326 330 333 331 332 331 333 331 332
342 343 348 348 345 340 339 336 333 327 319 310 305 324 55 38 25 40 48 41 3 305 313 306 316 316 317 320 322 325 331 340 338 331 332 328 335 334 333 333 335 333 334 334 336 334 328
340 340 346 349 347 344 343 341 337 332 326 315 309 335 352 343 38 26 24 357 327 326 320 313 315 315 319 319 324 327 329 329 325 314 314 322 327 334 338 332 336 335 333 324 323 324 323
334 336 338 342 345 341 340 337 334 333 327 323 357 12 4 12 17 19 10 3 319 321 321 324 320 316 317 319 320 321 323 319 327 328 321 317 316 329 334 332 328 331 332 325 318 319 319
333 332 333 337 344 333 331 331 330 330 329 334 16 -0 358 349 3 9 5 334 325 325 326 320 322 316 314 321 319 319 320 319 323 325 319 317 317 327 330 334 334 329 328 336 325 326 325
331 334 333 335 339 334 331 327 325 325 327 335 8 0 356 351 359 2 348 336 337 345 337 328 314 318 312 315 317 318 317 322 322 328 334 323 315 330 333 338 337 333 342 328 331 325 324
327 331 331 335 337 335 333 332 326 324 321 331 347 344 351 348 357 346 343 347 343 341 337 328 322 316 320 319 323 320 320 325 327 330 336 331 325 326 331 329 328 331 330 331 329 325 321
326 326 328 332 336 338 331 331 332 329 322 338 338 335 334 340 336 340 339 348 353 341 337 335 333 325 322 325 321 322 321 326 340 337 325 329 323 317 323 332 334 331 326 327 319 319 317
323 324 325 330 330 335 331 328 329 333 335 335 329 329 332 335 327 327 335 338 343 345 344 337 330 329 331 326 319 324 324 336 340 331 329 332 321 315 318 328 335 327 325 320 319 318 308
316 321 325 325 325 329 326 327 328 328 334 342 326 324 326 332 325 324 325 327 332 342 340 340 335 333 326 323 322 320 325 331 334 329 330 328 316 311 308 313 319 315 317 316 313 309 308
311 317 322 324 319 320 325 327 328 329 331 337 327 321 323 322 317 317 320 323 324 325 332 334 329 325 325 319 319 317 323 323 326 326 321 318 309 311 309 310 310 309 307 305 300 299 299
305 310 313 319 321 319 323 328 327 328 334 328 319 317 319 317 317 316 317 319 320 323 324 322 319 322 318 312 313 311 317 317 315 320 317 316 307 312 308 310 308 306 307 304 299 298 296
298 303 308 313 320 320 321 326 329 328 330 322 319 320 316 313 314 313 313 315 316 320 322 322 320 318 313 312 314 314 313 312 309 310 310 309 309 311 307 315 314 308 313 309 312 311 310
292 297 302 308 315 319 320 322 326 328 332 324 321 314 311 307 309 309 310 311 311 313 311 316 317 314 318 322 318 315 311 307 305 301 299 304 306 307 305 310 304 316 324 319 314 314 313
286 291 297 303 309 316 319 322 324 324 326 323 322 316 307 302 304 304 306 307 310 312 310 310 315 317 321 320 314 311 313 313 317 316 311 297 303 305 305 304 306 310 315 318 318 318 323
278 283 290 297 304 311 316 319 323 324 323 321 321 319 311 303 302 307 305 307 305 306 309 312 320 323 322 316 313 309 308 312 313 316 325 322 304 301 307 305 305 315 325 328 324 308 322
269 279 286 294 300 306 310 314 318 321 323 319 318 320 313 303 308 308 304 306 312 309 306 310 313 316 320 310 306 305 306 311 308 310 313 316 314 299 300 301 305 314 318 321 307 310 321
269 279 287 291 298 302 307 310 314 319 322 318 317 320 312 305 305 307 309 307 308 308 306 312 312 313 311 307 308 308 307 310 310 312 313 311 310 309 307 304 303 322 320 314 315 314 315
286 290 288 293 296 299 302 307 311 315 317 317 311 317 319 307 307 316 314 314 310 311 309 312 309 312 313 310 311 313 309 311 310 305 313 307 309 309 305 302 309 313 311 311 312 312 313